This is the latest recevied weather packets stored in our database for station/object KD7AWQ. If no packets are shown the sender has not sent any weather packets the latest 10 day(s).
| Time | Temp. | Humidity | Pressure | Rain* | Wind** | Luminosity | Snow |
|---|---|---|---|---|---|---|---|
| 1787759310 | 32.78° C | 19% | 1189.8 hPa | 0 mm | - | 535 W/m² | - |
| 1787759005 | 32.78° C | 19% | 1189.8 hPa | 0 mm | - | 518 W/m² | - |
| 1787758704 | 32.78° C | 20% | 1189.7 hPa | 0 mm | - | 497 W/m² | - |
| 1787758400 | 32.78° C | 20% | 1189.7 hPa | 0 mm | - | 478 W/m² | - |
| 1787758098 | 32.78° C | 20% | 1189.6 hPa | 0 mm | - | 472 W/m² | - |
| 1787757795 | 32.78° C | 20% | 1189.5 hPa | 0 mm | - | 434 W/m² | - |
| 1787757489 | 32.78° C | 20% | 1189.3 hPa | 0 mm | - | 413 W/m² | - |
| 1787757184 | 32.78° C | 20% | 1189.3 hPa | 0 mm | - | 391 W/m² | - |
| 1787756882 | 32.22° C | 21% | 1189.2 hPa | 0 mm | - | 371 W/m² | - |
| 1787756579 | 32.22° C | 21% | 1189.2 hPa | 0 mm | - | 352 W/m² | - |
| 1787756277 | 32.22° C | 21% | 1189.5 hPa | 0 mm | - | 330 W/m² | - |
| 1787755972 | 32.22° C | 21% | 1189.3 hPa | 0 mm | - | 310 W/m² | - |
| 1787755671 | 32.22° C | 20% | 1188.9 hPa | 0 mm | - | 287 W/m² | - |
| 1787755367 | 32.22° C | 20% | 1189.2 hPa | 0 mm | - | 268 W/m² | - |
| 1787755066 | 32.22° C | 20% | 1189.1 hPa | 0 mm | - | 249 W/m² | - |
| 1787754762 | 32.22° C | 20% | 1189 hPa | 0 mm | - | 225 W/m² | - |
| 1787754459 | 32.78° C | 20% | 1188.9 hPa | 0 mm | - | 206 W/m² | - |
| 1787754153 | 32.22° C | 20% | 1188.9 hPa | 0 mm | - | 186 W/m² | - |
| 1787753848 | 32.22° C | 21% | 1188.8 hPa | 0 mm | - | 164 W/m² | - |
| 1787753547 | 32.22° C | 21% | 1189 hPa | 0 mm | - | 148 W/m² | - |
| 1787753246 | 31.67° C | 21% | 1189.1 hPa | 0 mm | - | 134 W/m² | - |
| 1787752941 | 30.56° C | 22% | 1188.4 hPa | 0 mm | - | 126 W/m² | - |
| 1787752642 | 30.56° C | 22% | 1188.6 hPa | 0 mm | - | 116 W/m² | - |
| 1787752336 | 30.56° C | 22% | 1188.6 hPa | 0 mm | - | 102 W/m² | - |
| 1787752035 | 30.56° C | 22% | 1188.4 hPa | 0 mm | - | 85 W/m² | - |
* Rain latest hour (hover to see other rain measurements)
** Current wind speed in m/s (hover to see current wind gust speed)